Sultan Ismail Petra Airport
WMKC : now visible

Airfield :











YOU CAN JOIN US ON...

 
LOGIN :

Register | Disclaimer

   EN    FR    IT 

 









Legend :    VFR   Marginal VFR   IFR   Intensive IFR   Very Intensive IFR
Visi :
Ceiling :
>= 8 km
>= 3000ft
5 to 8 km
1000 to 3000 ft
1500m to 5 km
500 to 1000 ft
800 to 1500m
200 to 500 ft
< 800m
< 200 ft
Symbols :   Thunderstorms  Fog  Heavy snow  Heavy precipitations  Wind > 20 kt






- Airport Elevation : 16 ft
- IATA code : KBR


WMKC - Sultan Ismail Petra

CURRENT METAR :
  • 200100Z 24003KT 200V300 9999 FEW018 29/25 Q1008

EXPIRED METARs :
  • 200000Z VRB02KT 9999 FEW018 27/25 Q1008
  • 192300Z VRB03KT 9999 FEW020 27/25 Q1007
  • 192200Z VRB03KT 9999 FEW020 27/25 Q1006
  • 192100Z VRB02KT 9999 FEW020 27/25 Q1006

TAF TAF WMKC
Valid from the 20 at 00:00 until the 21 at 00:00 UTC


192300Z 2000/2100 04007KT 9999 FEW018
WMFC FIR / Asia



MET'MAP, your aeronautical weather chart ! - Copyright ORBIFLY December 2007 - Disclaimer

ORBIFLY MET'MAP TEAM :

Programming & Development : Alexandra Zaïnal
Original concept : Baudouin d'Aumeries
Technical & hardware support : Manuel Goepfert
Assistance : Marc-Olivier Méhu




SOURCES & CREDITS :

   NOAA       Earth
Advisory